Location: Trebic
(49.2170°N, 15.8830°E)
Time: 17:59:20
(UTC+02:00)

Transit 4A - Visible Passes

Search period start: 22 July 2019 00:00
Search period end: 01 August 2019 00:00
Orbit: 862 x 982 km, 66.8° (Epoch: 21 July)

Date Brightness Start Highest point End Pass type
(mag) Time Alt. Az. Time Alt. Az. Time Alt. Az.
22 Jul 8.9 01:38:14 26° SSE 01:40:37 35° ESE 01:46:20 10° NE visible
22 Jul 8.4 03:21:44 17° SW 03:26:46 59° NW 03:33:08 10° NNE visible
23 Jul 8.4 01:47:15 32° SSE 01:49:47 48° ESE 01:55:56 10° NE visible
23 Jul 8.8 03:30:45 13° WSW 03:36:17 45° NW 03:42:27 10° NNE visible
24 Jul 9.9 00:12:44 13° ESE 00:13:49 13° E 00:16:40 10° ENE visible
24 Jul 8.1 01:56:14 35° S 01:59:02 67° ESE 02:05:25 10° NE visible
24 Jul 9.1 03:40:01 10° WSW 03:45:53 36° NW 03:51:46 10° NNE visible
25 Jul 9.5 00:21:41 19° ESE 00:22:48 20° ESE 00:27:12 10° ENE visible
25 Jul 8.0 02:05:12 33° SSW 02:08:21 89° ESE 02:14:50 10° NE visible
25 Jul 9.5 03:50:02 10° W 03:55:34 29° NNW 04:01:05 10° NNE visible
26 Jul 9.0 00:30:36 26° SE 00:31:51 28° ESE 00:37:09 10° NE visible
26 Jul 8.2 02:14:06 27° SW 02:17:46 70° NW 02:24:12 10° NNE visible
26 Jul 9.8 04:00:10 10° W 04:05:19 24° NNW 04:10:27 10° NNE visible
27 Jul 8.6 00:39:28 34° SE 00:40:58 39° ESE 00:46:51 10° NE visible
27 Jul 8.5 02:22:58 21° WSW 02:27:13 53° NW 02:33:32 10° NNE visible
27 Jul 10.0 04:10:23 10° WNW 04:15:07 21° NNW 04:19:51 10° NNE visible
28 Jul 8.2 00:48:17 41° SSE 00:50:10 54° ESE 00:56:24 10° NE visible
28 Jul 9.0 02:31:47 15° WSW 02:36:47 41° NW 02:42:51 10° NNE visible
28 Jul 10.2 04:20:37 10° WNW 04:24:58 18° NNW 04:29:18 10° NNE visible
28 Jul 9.6 23:13:35 15° ESE 23:14:06 15° ESE 23:17:38 10° ENE visible
29 Jul 7.9 00:57:04 41° SSW 00:59:26 74° ESE 01:05:52 10° NE visible
29 Jul 9.4 02:40:41 10° W 02:46:25 33° NW 02:52:10 10° NNE visible
29 Jul 10.3 04:30:51 10° NW 04:34:53 17° N 04:38:53 10° NNE visible
29 Jul 9.2 23:22:17 22° ESE 23:23:06 22° ESE 23:27:53 10° ENE visible
30 Jul 8.0 01:05:46 34° SW 01:08:47 83° NW 01:15:16 10° NE visible
30 Jul 9.7 02:50:44 10° W 02:56:07 27° NNW 03:01:30 10° NNE visible
30 Jul 10.4 04:40:59 10° NW 04:44:49 16° N 04:48:36 10° NNE visible
30 Jul 8.8 23:30:56 29° SE 23:32:10 32° ESE 23:37:43 10° NE visible
31 Jul 8.3 01:14:24 25° WSW 01:18:13 63° NW 01:24:37 10° NNE visible
31 Jul 10.0 03:00:53 10° WNW 03:05:53 23° NNW 03:10:52 10° NNE visible
31 Jul 8.4 23:39:30 36° SSE 23:41:19 44° ESE 23:47:21 10° NE visible
